Regional Weather Roundup
Issued by NWS Newport/Morehead, NC

Home | Current Version | Previous Version | Text Only | Print | Product List | Glossary On
Versions: 1 2 3 4 5 6 7 8 9 10 11 12 13 14 15 16 17 18 19 20 21 22 23 24 25 26 27 28 29 30 31 32 33 34 35 36 37 38 39 40 41 42 43 44 45 46 47 48 49 50
000
ASUS42 KMHX 231525
RWRMHX
WEATHER ROUNDUP FOR EASTERN NORTH CAROLINA
NATIONAL WEATHER SERVICE NEWPORT/MOREHEAD CITY NC
1100 AM EDT SAT SEP 23 2017

NOTE: "FAIR" INDICATES FEW OR NO CLOUDS BELOW 12,000 FEET
WITH NO SIGNIFICANT WEATHER AND/OR OBSTRUCTIONS TO VISIBILITY

NCZ015>017-031-032-045>047-102-103-231600-
NORTH COAST

CITY           SKY/WX    TMP DP  RH WIND       PRES   REMARKS
EDENTON        MOSUNNY   80  69  67 CALM      30.06F
ELIZABETH CITY SUNNY     80  69  69 N3        30.05S
KITTY HAWK     SUNNY     77  64  63 CALM      30.04S
MANTEO         SUNNY     78  66  68 N7        30.05F

$$

NCZ045>047-081-094-103-104-231600-
CENTRAL COAST

CITY           SKY/WX    TMP DP  RH WIND       PRES   REMARKS
FRISCO         MOSUNNY   83  66  56 VRB5      30.05R

$$

NCZ095-097-098-100-101-231600-
SOUTHERN COAST

CITY           SKY/WX    TMP DP  RH WIND       PRES   REMARKS
BEAUFORT       SUNNY     81  69  67 N6        30.04S
CEDAR ISLAND   NOT AVBL
JACKSONVILLE   SUNNY     81  67  62 N9        30.04S
PINEY ISLAND     N/A    N/A N/A N/A NE8       30.05R
WILMINGTON     SUNNY     83  70  64 N5        30.04S


$$

NCZ011>013-027>030-043-044-078>080-089-090>093-098-231600-
COASTAL PLAIN

CITY           SKY/WX    TMP DP  RH WIND       PRES   REMARKS
AHOSKIE        MOSUNNY   77  65  66 N6        30.07S
CLINTON        SUNNY     82  67  61 NE7       30.06S
ELIZABETHTOWN  NOT AVBL
GOLDSBORO      SUNNY     80  69  67 NE8       30.05S
GREENVILLE     MOSUNNY   81  66  61 NE7       30.08F
HAVELOCK       SUNNY     82  69  64 N9        30.06R
KENANSVILLE    SUNNY     81  66  61 N8        30.06S
KINSTON        MOSUNNY   79  66  65 N9        30.07S
NEW BERN       SUNNY     79  68  69 N8        30.06S
RICHLANDS      SUNNY     81  68  64 NE7       30.05S
ROCKY MOUNT    SUNNY     79  67  66 NE5       30.08R
WASHINGTON     SUNNY     79  66  63 N9        30.06F
WHITEVILLE     SUNNY     82  69  66 N3        30.04F

$$

AMZ130-135-150-152-154-156-158-170-250-252-270-ANZ085-086-088-633-658-670-231600-
MARINE OBSERVATIONS

STATION/POSITION TIME  TEMP    WIND        PRES    WAVE   SWELL
                       AIR SEA DIR/SP/G            HT/PER HT/PER
                 (UTC) (F)     (DEG/KT/KT) (MB)    (FT/S) (FT/S)
CHESAPEAKE LIGHT NOT AVBL
64 E VA BEACH    1450   70 70   10/  6/  8 1017.6    8/14   8/14
DUCK             1500   74 76   10/  8/  9 1017.1
2 E DUCK         1500      76                N/A     5/14   3/14
OREGON INLET     1500   77 78   10/  6/ 10 1017.3
13E OREGON INLT  1448      75                N/A     6/11   7/11
HATTERAS CG      1500   78 78   40/  5/  8 1017.4
DIAMOND BUOY     1450   76 76   50/ 10/ 10 1017.1    9/11   8/11
CAPE LOOKOUT     1500   80      20/  7/  9 1016.9
BEAUFORT LAB     1500   79 76  360/  6/  9 1016.7
30 SE NEW RVR IN 1508   78     350/  8/ 10 1016.7
30 SE NEW RVR IN NOT AVBL
27 SE WRIGHTSVLE 1508   78 80  350/  8/ 12 1016.9
5 SE WRIGHTSVLE  1508   76 79   20/  6/ 10 1017.0
225 S CAPE HAT   1450   79 79   60/ 16/ 17 1014.6    9/11   8/11
41 SE CHARLESTON 1510   80 82   50/ 14/ 16 1015.9

$$




USA.gov is the U.S. government's official web portal to all federal, state and local government web resources and services.